{"data":{"norad_id":56370,"epoch":"2026-05-25T03:26:38.623776Z","epoch_age_seconds":59687,"freshness":"FRESH","line1":"1 56370U 23060A   26145.14350259 -.00000188  00000+0  00000+0 0  9995","line2":"2 56370   0.0137 321.8091 0000845 118.5113 125.1610  1.00270815 11209","mean_motion":1.00270815,"eccentricity":8.45e-5,"inclination_deg":0.0137,"raan_deg":321.8091,"arg_perigee_deg":118.5113,"mean_anomaly_deg":125.161,"bstar":0,"rev_number":1120,"period_min":1436.1107965463,"perigee_km":35783.303946766,"apogee_km":35790.429832424,"semimajor_km":42165.003889595,"source":"CELESTRAK","updated_at":"2026-05-25T13:38:14.140280Z"}}